Погода в Старых Маклаушах

Россия / Ульяновская область     54°27′28″N   47°27′27″E
темп.,
°C
ветер,
м/с
пор.,
м/с
влажн.,
%
обл.,
%
осадки,
мм/ч
давл.,
гПа
погр.,
м
11 мая, вт
вт1101:00+15ссв61188100 0.0 1020293
04:00+14св5108799 0.0 1021250
07:00+15всв377899 0.0 1022192
10:00+19в5753100 0.0 1023487
13:00+20вюв5650100 0.0 1025806
16:00+22вюв5746100 0.0 10251412
19:00+19юв2463100 0.0 102697
22:00+14зсз349016 0.0 102766
12 мая, ср
ср1201:00+13ссз229078 0.0 102714
04:00+14всв337696 0.0 102629
07:00+15в3107598 0.0 1026269
10:00+19вюв61057100 0.0 1026840
13:00+18юв6105791 0.0 1027859
16:00+22вюв794335 0.0 10261927
19:00+19юв376059 0.0 1025210
22:00+16юв3106450 0.0 1026270
13 мая, чт
чт1301:00+13вюв346938 0.0 102564
04:00+12вюв367330 0.0 1025104
07:00+14в41168100 0.0 1025257
10:00+14вюв51069100 0.0 1025272
13:00+15в4773100 0.5 1024278
16:00+20вюв7135764 0.6 1023845
19:00+20юв61262100 0.0 1021364
22:00+15юв487687 0.2 1022123
14 мая, пт
пт1401:00+14юв4127280 0.2 1021226
04:00+13юв4117220 1.0 1021169
07:00+14ююв38718 0.4 1022218
10:00+20ю4761100 0.4 1021417
13:00+24ю575289 0.0 10211025
16:00+26ю5942100 0.0 10211595
19:00+22ююв37605 0.0 1020169
22:00+18ю413604 0.0 1020238
15 мая, сб
сб1501:00+16ю412625 0.0 1020214
04:00+15ю39576 0.0 1020142
07:00+17ююв396146 0.0 1020193
10:00+23ю584478 0.0 1020426
13:00+26ю6931100 0.0 10201293
16:00+26ю51035100 0.0 10191636
19:00+23ююв49535 0.0 1018205
22:00+19ююв4135038 0.0 1018194